Amritsar, India

11:59 PM IST on August 18, 2017 (GMT +0530)
Amritsar

Weather History for VIAR - November, 2011

Change the Weather History Date:

Monday, November 14, 2011

  Actual Average Record
Temperature  
Mean Temperature 68 °F -  
Max Temperature 84 °F 78 °F 84 °F (1996)
Min Temperature 52 °F 51 °F 44 °F (1996)
Cooling Degree Days 3    
Growing Degree Days 18 (Base 50)    
Moisture  
Dew Point 55 °F    
Average Humidity 65    
Maximum Humidity 94    
Minimum Humidity 25    
Precipitation  
Precipitation 0.00 in - - ()
Sea Level Pressure  
Sea Level Pressure 29.97 in    
Wind  
Wind Speed 1 mph ()    
Max Wind Speed 7 mph    
Max Gust Speed -    
Visibility 2.3 miles    
Events      
Averages and records for this station are not official NWS values.
T = Trace of Precipitation, MM = Missing Value Source: Averaged Metar Reports

Daily Weather History Graph

Daily Weather History Graph

Search for Another Location

Airport or City:

Trip Planner

Search our weather history database for the weather conditions in past years. The results will help you decide how hot, cold, wet, or windy it might be!

Date:

Astronomy

Nov. 14, 2011 Rise Set
Actual Time 6:57 AM IST 5:32 PM IST
Civil Twilight 6:31 AM IST 5:58 PM IST
Nautical Twilight 6:02 AM IST 6:27 PM IST
Astronomical Twilight 5:33 AM IST 6:56 PM IST
Moon 8:17 PM IST (11/14) 9:49 AM IST (11/14)
Length of Visible Light 11h 26m
Length of Day
10h 35m
Waning Gibbous, 89% of the Moon is Illuminated
Nov 14
Waning Gibbous
Nov 18
Last Quarter
Nov 25
New
Dec 2
First Quarter
Dec 10
Full

Hourly Weather History & Observations

Time (IST) Temp. Heat Index Dew Point Humidity Pressure Visibility Wind Dir Wind Speed Gust Speed Precip Events Conditions
12:00 AM 62.6 °F - 55.4 °F 77% 29.98 in 1.9 mi Calm Calm - N/A   Haze
1:00 AM 60.8 °F - 55.4 °F 82% 29.98 in 1.9 mi Calm Calm - N/A   Haze
2:00 AM 59.0 °F - 55.4 °F 88% 29.95 in 1.9 mi Calm Calm - N/A   Haze
3:00 AM 59.0 °F - 53.6 °F 82% 29.95 in 1.9 mi Calm Calm - N/A   Haze
4:00 AM 57.2 °F - 55.4 °F 94% 29.95 in 1.9 mi Calm Calm - N/A   Haze
5:00 AM 57.2 °F - 53.6 °F 88% 29.95 in 1.9 mi Calm Calm - N/A   Haze
6:00 AM 55.4 °F - 53.6 °F 94% 29.95 in 1.9 mi Calm Calm - N/A   Haze
7:00 AM 55.4 °F - 51.8 °F 88% 29.95 in 1.4 mi Calm Calm - N/A   Scattered Clouds
8:30 AM 62 °F - 57 °F 78% 29.98 in 1 mi Calm Calm - -   Mist
9:00 AM 66.2 °F - 57.2 °F 73% 30.01 in 1.1 mi Calm Calm - N/A   Haze
11:00 AM 75.2 °F - 55.4 °F 50% 30.01 in 2.5 mi Variable 2.3 mph - N/A   Smoke
11:30 AM 78 °F - 54 °F 33% 29.99 in 2 mi WNW 4.6 mph - -   Smoke
1:00 PM 82.4 °F 81.4 °F 53.6 °F 37% 29.98 in 3.7 mi WNW 4.6 mph - N/A   Scattered Clouds
2:00 PM 82.4 °F - 50.0 °F 32% 29.98 in 3.7 mi West 6.9 mph - N/A   Scattered Clouds
2:30 PM 83 °F - 53 °F 25% 29.93 in 2 mi WNW 5.8 mph - -   Smoke
3:00 PM 82.4 °F - 51.8 °F 35% 29.95 in 3.7 mi WNW 5.8 mph - N/A   Scattered Clouds
4:00 PM 82.4 °F - 51.8 °F 35% 29.95 in 3.7 mi WNW 4.6 mph - N/A   Scattered Clouds
5:00 PM 78.8 °F - 55.4 °F 44% 29.95 in 3.7 mi Calm Calm - N/A   Scattered Clouds
5:30 PM 76 °F - 56 °F 39% 29.93 in 2 mi Calm Calm - -   Partly Cloudy
6:00 PM 71.6 °F - 55.4 °F 57% 29.95 in 3.1 mi Calm Calm - N/A   Haze
7:00 PM 69.8 °F - 57.2 °F 64% 29.98 in 3.1 mi Calm Calm - N/A   Haze
8:00 PM 68.0 °F - 57.2 °F 68% 29.98 in 2.5 mi Calm Calm - N/A   Haze
8:30 PM 66 °F - 57 °F 65% 29.99 in 2 mi Calm Calm - -   Haze
9:00 PM 64.4 °F - 57.2 °F 77% 30.01 in 2.5 mi Calm Calm - N/A   Haze
10:00 PM 64.4 °F - 57.2 °F 77% 30.01 in 2.2 mi Calm Calm - N/A   Haze
11:00 PM 60.8 °F - 57.2 °F 88% 30.01 in 1.9 mi Calm Calm - N/A   Scattered Clouds
11:30 PM 62 °F - 56 °F 74% 30.01 in 1 mi Calm Calm - -   Mist